Location: Prague
(50.0830°N, 14.4670°E)
Time: 07:31:44
(UTC+02:00)

DOVE 4 - Pass Details

Date: 09 April 2023
Orbit: 584 x 791 km, 97.8° (Epoch: 29 May)

Event Time Altitude Azimuth Distance (km) Brightness Sun altitude
Rises 01:57:39 0° 357° (N) 3,071 ? -31.3°
Maximum altitude 02:02:46 10° 309° (NW) 2,067 ? -31.1°
Enters shadow 02:03:03 10° 305° (NW) 2,066 ? -31.1°
